This is the latest recevied weather packets stored in our database for station/object LRCV. If no packets are shown the sender has not sent any weather packets the latest 10 day(s).
| Time | Temp. | Humidity | Pressure | Rain* | Wind** | Luminosity | Snow |
|---|---|---|---|---|---|---|---|
| 1777791822 | 11.11° C | 62% | 1023 hPa | - | - | - | - |
| 1777790922 | 11.11° C | 62% | 1023 hPa | - | - | - | - |
| 1777790058 | 11.11° C | 62% | 1023 hPa | - | - | - | - |
| 1777789123 | 8.89° C | 71% | 1023 hPa | - | - | - | - |
| 1777788221 | 8.89° C | 71% | 1023 hPa | - | - | - | - |
| 1777787321 | 7.78° C | 87% | 1023 hPa | - | - | - | - |
| 1777786422 | 7.78° C | 87% | 1023 hPa | - | - | - | - |
| 1777785521 | 7.22° C | 87% | 1023 hPa | - | - | - | - |
| 1777784622 | 7.22° C | 87% | 1023 hPa | - | - | - | - |
| 1777783721 | 5° C | 93% | 1022 hPa | - | - | - | - |
| 1777782823 | 5° C | 93% | 1022 hPa | - | - | - | - |
| 1777781922 | 3.89° C | 93% | 1022 hPa | - | - | - | - |
| 1777781044 | 3.89° C | 93% | 1022 hPa | - | - | - | - |
| 1777780123 | 3.89° C | 93% | 1022 hPa | - | - | - | - |
| 1777779221 | 3.89° C | 93% | 1022 hPa | - | - | - | - |
| 1777778322 | 2.78° C | 100% | 1022 hPa | - | - | - | - |
| 1777777421 | 2.78° C | 100% | 1022 hPa | - | - | - | - |
| 1777776536 | 3.89° C | 93% | 1022 hPa | - | - | - | - |
| 1777775622 | 3.89° C | 93% | 1022 hPa | - | - | - | - |
| 1777774721 | 3.89° C | 100% | 1022 hPa | - | - | - | - |
| 1777773821 | 3.89° C | 100% | 1022 hPa | - | - | - | - |
| 1777772921 | 5° C | 93% | 1022 hPa | - | - | - | - |
| 1777772021 | 5° C | 93% | 1022 hPa | - | - | - | - |
| 1777771122 | 6.11° C | 87% | 1022 hPa | - | - | - | - |
| 1777770222 | 6.11° C | 87% | 1022 hPa | - | - | - | - |
* Rain since midnight (hover to see other rain measurements)
** Current wind speed in m/s (hover to see current wind gust speed)